Location: Bannatyne
(13.0833°N, 59.5333°W)
Time: 14:58:03
(UTC+00:00)

Vanguard 3 - Pass Details

Date: 30 January 2020
Orbit: 508 x 3263 km, 33.3° (Epoch: 22 February)

Event Time Altitude Azimuth Distance (km) Brightness Sun altitude
Rises 02:14:09 0° 303° (WNW) 6,921 12.2 -61.4°
Reaches altitude 10° 02:19:20 10° 306° (NW) 5,618 11.5 -62.6°
Enters shadow 02:24:44 24° 310° (NW) 4,197 10.7 -63.9°
Maximum altitude 02:35:01 70° 28° (NNE) 1,990 - -66.3°
Drops below altitude 10° 02:43:41 10° 111° (ESE) 3,288 - -68.4°
Sets 02:45:56 0° 114° (ESE) 3,984 - -68.9°
